Weather in Nizhniy Chulym

Russia / Novosibirsk Oblast     54°36′51″N   78°56′15″E
temp.,
°C
wind,
m/s
gust,
m/s
humid.,
%
clouds,
%
prec.,
mm/h
press.,
hPa
HPBL,
m
25 february, thu
thu2501:00−23sw499563 0.4 1014206
04:00−23sw6138967 0.0 1014290
07:00−26ssw5119243 0.0 1015218
10:00−24ssw6129499 0.1 1016447
13:00−21sw7108999 0.1 10171068
16:00−21sw71187100 0.1 10181299
19:00−21sw41092100 0.2 1020513
22:00−23sw4997100 0.0 1021298
26 february, fri
fri2601:00−26sw499892 0.1 1022162
04:00−29sw5109778 0.0 1024219
07:00−28sw6119689 0.1 1027321
10:00−27wsw51095100 0.1 1030442
13:00−25wsw5892100 0.1 1032596
16:00−24wsw5891100 0.1 1033623
19:00−26sw4896100 0.1 1034252
22:00−28sw4898100 0.0 1035147
27 february, sat
sat2701:00−29sw4799100 0.1 1036129
04:00−31sw349999 0.0 103670
07:00−32ssw349999 0.0 103653
10:00−32ssw359894 0.0 1037108
13:00−28ssw359586 0.0 1037242
16:00−26ssw359367 0.0 1037304
19:00−28ssw339650 0.0 103719
22:00−30s33960 0.0 103826
28 february, sun
sun2801:00−30s33960 0.0 103723
04:00−30sse339539 0.0 103724
07:00−29se349843 0.0 103656
10:00−27se489545 0.0 1035160
13:00−20se599070 0.0 1032272
16:00−16se61089100 0.0 1029355
19:00−14se61391100 0.0 1025474
22:00−7sse81494100 1.5 1016723
1 march, mon
mon101:00−4s71395100 2.9 1013749
04:00−3ssw81496100 1.3 1010767
07:00−1sw91596100 3.3 1008727
10:000wsw61297100 1.4 1008691
13:000wsw91498100 2.2 1009840
16:000wsw81290100 0.2 1010832
19:00−2wsw61291100 0.3 1011725
22:00−2sw61195100 0.3 1012491